Time,TemperatureF,DewpointF,PressureIn,WindDirection,WindDirectionDegrees,WindSpeedMPH,WindSpeedGustMPH,Humidity,HourlyPrecipIn,Conditions,Clouds,dailyrainin,SoftwareType,DateUTC
2013-03-04 00:00:00,29.2,19.0,30.20,South,173,4.0,4.0,65,0.00,,,0.00,weatherlink.com 1.10,2013-03-04 05:00:00,
2013-03-04 00:15:00,29.0,19.0,30.21,SW,231,3.0,4.0,66,0.00,,,0.00,weatherlink.com 1.10,2013-03-04 05:15:00,
2013-03-04 00:30:00,28.9,18.0,30.21,WSW,243,2.0,6.0,64,0.00,,,0.00,weatherlink.com 1.10,2013-03-04 05:30:00,
2013-03-04 00:45:00,28.9,17.0,30.21,ENE,68,3.0,5.0,62,0.00,,,0.00,weatherlink.com 1.10,2013-03-04 05:45:00,
2013-03-04 01:00:00,28.8,17.0,30.21,SSW,205,2.0,4.0,61,0.00,,,0.00,weatherlink.com 1.10,2013-03-04 06:00:00,
2013-03-04 01:15:00,28.7,17.0,30.21,ESE,119,2.0,5.0,62,0.00,,,0.00,weatherlink.com 1.10,2013-03-04 06:15:00,
2013-03-04 01:30:00,28.6,17.0,30.21,SSW,210,3.0,4.0,61,0.00,,,0.00,weatherlink.com 1.10,2013-03-04 06:30:00,
2013-03-04 01:45:00,28.7,17.0,30.22,WSW,238,1.0,5.0,62,0.00,,,0.00,weatherlink.com 1.10,2013-03-04 06:45:00,
2013-03-04 02:00:00,28.3,17.0,30.22,SSW,200,2.0,7.0,64,0.00,,,0.00,weatherlink.com 1.10,2013-03-04 07:00:00,
2013-03-04 02:15:00,28.2,17.0,30.22,West,262,2.0,7.0,64,0.00,,,0.00,weatherlink.com 1.10,2013-03-04 07:15:00,
2013-03-04 02:30:00,28.2,18.0,30.23,SW,229,5.0,9.0,67,0.00,,,0.00,weatherlink.com 1.10,2013-03-04 07:30:00,
2013-03-04 02:45:00,28.0,18.0,30.23,WSW,252,1.0,4.0,67,0.00,,,0.00,weatherlink.com 1.10,2013-03-04 07:45:00,
2013-03-04 03:00:00,27.6,18.0,30.23,WNW,284,3.0,3.0,68,0.00,,,0.00,weatherlink.com 1.10,2013-03-04 08:00:00,
2013-03-04 03:15:00,27.6,18.0,30.23,WNW,286,1.0,3.0,68,0.00,,,0.00,weatherlink.com 1.10,2013-03-04 08:15:00,
2013-03-04 03:30:00,27.3,18.0,30.23,West,271,1.0,3.0,69,0.00,,,0.00,weatherlink.com 1.10,2013-03-04 08:30:00,
2013-03-04 03:45:00,27.1,19.0,30.23,West,274,1.0,3.0,70,0.00,,,0.00,weatherlink.com 1.10,2013-03-04 08:45:00,
2013-03-04 04:00:00,27.2,19.0,30.23,SSW,203,4.0,5.0,71,0.00,,,0.00,weatherlink.com 1.10,2013-03-04 09:00:00,
2013-03-04 04:15:00,26.9,19.0,30.24,SW,220,5.0,6.0,73,0.00,,,0.00,weatherlink.com 1.10,2013-03-04 09:15:00,
2013-03-04 04:30:00,26.8,20.0,30.24,South,179,3.0,6.0,75,0.00,,,0.00,weatherlink.com 1.10,2013-03-04 09:30:00,
2013-03-04 04:45:00,26.5,20.0,30.25,SW,225,2.0,4.0,76,0.00,,,0.00,weatherlink.com 1.10,2013-03-04 09:45:00,
2013-03-04 05:00:00,27.5,21.0,30.25,SSW,198,0.0,3.0,76,0.00,,,0.00,weatherlink.com 1.10,2013-03-04 10:00:00,
2013-03-04 05:15:00,26.5,20.0,30.25,SSW,198,1.0,3.0,75,0.00,,,0.00,weatherlink.com 1.10,2013-03-04 10:15:00,
2013-03-04 05:30:00,26.2,21.0,30.26,SSE,168,1.0,3.0,79,0.00,,,0.00,weatherlink.com 1.10,2013-03-04 10:30:00,
2013-03-04 05:45:00,25.7,20.0,30.26,South,180,1.0,2.0,80,0.00,,,0.00,weatherlink.com 1.10,2013-03-04 10:45:00,
2013-03-04 06:00:00,25.4,20.0,30.27,South,176,0.0,1.0,81,0.00,,,0.00,weatherlink.com 1.10,2013-03-04 11:00:00,
2013-03-04 06:15:00,25.5,21.0,30.28,ESE,123,0.0,0.0,82,0.00,,,0.00,weatherlink.com 1.10,2013-03-04 11:15:00,
2013-03-04 06:30:00,25.3,21.0,30.28,SW,230,0.0,0.0,82,0.00,,,0.00,weatherlink.com 1.10,2013-03-04 11:30:00,
2013-03-04 06:45:00,25.7,21.0,30.28,West,261,0.0,1.0,82,0.00,,,0.00,weatherlink.com 1.10,2013-03-04 11:45:00,
2013-03-04 07:00:00,25.2,21.0,30.28,SSE,164,1.0,1.0,85,0.00,,,0.00,weatherlink.com 1.10,2013-03-04 12:00:00,
2013-03-04 07:15:00,29.3,25.0,30.28,ESE,115,0.0,1.0,84,0.00,,,0.00,weatherlink.com 1.10,2013-03-04 12:15:00,
2013-03-04 07:30:00,27.6,22.0,30.27,East,97,1.0,2.0,79,0.00,,,0.00,weatherlink.com 1.10,2013-03-04 12:30:00,
2013-03-04 07:45:00,31.5,23.0,30.28,East,97,1.0,2.0,72,0.00,,,0.00,weatherlink.com 1.10,2013-03-04 12:45:00,
2013-03-04 08:00:00,28.9,22.0,30.28,East,101,2.0,4.0,75,0.00,,,0.00,weatherlink.com 1.10,2013-03-04 13:00:00,
2013-03-04 08:16:00,31.6,24.0,30.30,East,96,2.0,2.0,72,0.00,,,0.00,weatherlink.com 1.10,2013-03-04 13:16:00,
2013-03-04 08:31:00,32.7,23.0,30.30,East,80,1.0,2.0,68,0.00,,,0.00,weatherlink.com 1.10,2013-03-04 13:31:00,
2013-03-04 08:46:00,36.1,26.0,30.30,East,83,1.0,3.0,66,0.00,,,0.00,weatherlink.com 1.10,2013-03-04 13:46:00,
2013-03-04 09:01:00,35.8,24.0,30.30,East,79,0.0,4.0,62,0.00,,,0.00,weatherlink.com 1.10,2013-03-04 14:01:00,
2013-03-04 09:16:00,36.4,23.0,30.30,ENE,65,0.0,2.0,58,0.00,,,0.00,weatherlink.com 1.10,2013-03-04 14:16:00,
2013-03-04 09:31:00,36.6,23.0,30.29,SSE,150,3.0,7.0,58,0.00,,,0.00,weatherlink.com 1.10,2013-03-04 14:31:00,
2013-03-04 09:46:00,36.6,23.0,30.29,ESE,117,3.0,7.0,58,0.00,,,0.00,weatherlink.com 1.10,2013-03-04 14:46:00,
2013-03-04 10:01:00,38.5,21.0,30.28,ENE,68,3.0,5.0,50,0.00,,,0.00,weatherlink.com 1.10,2013-03-04 15:01:00,
2013-03-04 10:16:00,38.5,20.0,30.28,ESE,116,5.0,8.0,48,0.00,,,0.00,weatherlink.com 1.10,2013-03-04 15:16:00,
2013-03-04 10:31:00,39.3,20.0,30.28,ESE,105,6.0,8.0,47,0.00,,,0.00,weatherlink.com 1.10,2013-03-04 15:31:00,
2013-03-04 10:46:00,38.6,19.0,30.27,ESE,103,3.0,9.0,45,0.00,,,0.00,weatherlink.com 1.10,2013-03-04 15:46:00,
2013-03-04 11:01:00,41.5,21.0,30.28,WNW,291,1.0,3.0,45,0.00,,,0.00,weatherlink.com 1.10,2013-03-04 16:01:00,
2013-03-04 11:16:00,41.5,16.0,30.27,ENE,77,0.0,2.0,36,0.00,,,0.00,weatherlink.com 1.10,2013-03-04 16:16:00,
2013-03-04 11:31:00,43.1,18.0,30.27,ENE,70,1.0,6.0,37,0.00,,,0.00,weatherlink.com 1.10,2013-03-04 16:31:00,
2013-03-04 11:46:00,43.7,18.0,30.27,SE,133,2.0,11.0,35,0.00,,,0.00,weatherlink.com 1.10,2013-03-04 16:46:00,
2013-03-04 12:01:00,43.8,18.0,30.26,East,90,1.0,7.0,35,0.00,,,0.00,weatherlink.com 1.10,2013-03-04 17:01:00,
2013-03-04 12:16:00,44.4,20.0,30.25,NE,53,1.0,8.0,38,0.00,,,0.00,weatherlink.com 1.10,2013-03-04 17:16:00,
2013-03-04 12:31:00,46.9,20.0,30.24,SE,131,4.0,7.0,35,0.00,,,0.00,weatherlink.com 1.10,2013-03-04 17:31:00,
2013-03-04 12:46:00,44.1,15.0,30.23,ESE,102,6.0,8.0,31,0.00,,,0.00,weatherlink.com 1.10,2013-03-04 17:46:00,
2013-03-04 13:01:00,46.5,16.0,30.23,East,79,1.0,5.0,30,0.00,,,0.00,weatherlink.com 1.10,2013-03-04 18:01:00,
2013-03-04 13:16:00,47.7,16.0,30.21,SW,214,5.0,8.0,28,0.00,,,0.00,weatherlink.com 1.10,2013-03-04 18:16:00,
2013-03-04 13:31:00,47.3,16.0,30.21,ENE,75,3.0,9.0,28,0.00,,,0.00,weatherlink.com 1.10,2013-03-04 18:31:00,
2013-03-04 13:46:00,47.2,15.0,30.20,SSE,162,6.0,8.0,27,0.00,,,0.00,weatherlink.com 1.10,2013-03-04 18:46:00,
2013-03-04 14:01:00,47.9,18.0,30.19,North,8,4.0,6.0,31,0.00,,,0.00,weatherlink.com 1.10,2013-03-04 19:01:00,
2013-03-04 14:16:00,49.3,20.0,30.18,ESE,119,0.0,8.0,31,0.00,,,0.00,weatherlink.com 1.10,2013-03-04 19:16:00,
2013-03-04 14:31:00,49.9,18.0,30.17,East,95,1.0,7.0,28,0.00,,,0.00,weatherlink.com 1.10,2013-03-04 19:31:00,
2013-03-04 14:46:00,50.8,19.0,30.16,ENE,76,3.0,5.0,28,0.00,,,0.00,weatherlink.com 1.10,2013-03-04 19:46:00,
2013-03-04 15:01:00,50.6,18.0,30.17,South,170,2.0,6.0,28,0.00,,,0.00,weatherlink.com 1.10,2013-03-04 20:01:00,
2013-03-04 15:16:00,49.4,19.0,30.16,SSE,165,2.0,4.0,30,0.00,,,0.00,weatherlink.com 1.10,2013-03-04 20:16:00,
2013-03-04 15:31:00,49.6,21.0,30.16,NE,45,1.0,2.0,32,0.00,,,0.00,weatherlink.com 1.10,2013-03-04 20:31:00,
2013-03-04 15:47:00,49.9,20.0,30.17,ESE,112,0.0,4.0,31,0.00,,,0.00,weatherlink.com 1.10,2013-03-04 20:47:00,
2013-03-04 16:02:00,48.9,18.0,30.16,NNW,344,0.0,3.0,29,0.00,,,0.00,weatherlink.com 1.10,2013-03-04 21:02:00,
2013-03-04 16:17:00,48.6,19.0,30.15,SSE,153,4.0,6.0,31,0.00,,,0.00,weatherlink.com 1.10,2013-03-04 21:17:00,
2013-03-04 16:32:00,48.6,19.0,30.15,East,86,0.0,4.0,31,0.00,,,0.00,weatherlink.com 1.10,2013-03-04 21:32:00,
2013-03-04 16:47:00,48.2,19.0,30.14,East,82,1.0,6.0,31,0.00,,,0.00,weatherlink.com 1.10,2013-03-04 21:47:00,
2013-03-04 17:02:00,48.3,19.0,30.14,ESE,103,4.0,7.0,31,0.00,,,0.00,weatherlink.com 1.10,2013-03-04 22:02:00,
2013-03-04 17:17:00,48.1,19.0,30.14,ESE,112,3.0,5.0,32,0.00,,,0.00,weatherlink.com 1.10,2013-03-04 22:17:00,
2013-03-04 17:32:00,48.2,19.0,30.14,SSE,158,0.0,5.0,32,0.00,,,0.00,weatherlink.com 1.10,2013-03-04 22:32:00,
2013-03-04 17:47:00,48.5,21.0,30.14,ESE,108,1.0,1.0,34,0.00,,,0.00,weatherlink.com 1.10,2013-03-04 22:47:00,
2013-03-04 18:02:00,48.5,20.0,30.12,East,101,1.0,2.0,33,0.00,,,0.00,weatherlink.com 1.10,2013-03-04 23:02:00,
2013-03-04 18:17:00,48.4,20.0,30.12,ESE,103,0.0,1.0,33,0.00,,,0.00,weatherlink.com 1.10,2013-03-04 23:17:00,
2013-03-04 18:32:00,47.7,20.0,30.12,SE,144,0.0,2.0,34,0.00,,,0.00,weatherlink.com 1.10,2013-03-04 23:32:00,
2013-03-04 18:47:00,47.3,20.0,30.12,ESE,110,0.0,1.0,34,0.00,,,0.00,weatherlink.com 1.10,2013-03-04 23:47:00,
2013-03-04 19:02:00,47.1,20.0,30.12,East,90,4.0,4.0,34,0.00,,,0.00,weatherlink.com 1.10,2013-03-05 00:02:00,
2013-03-04 19:17:00,46.7,20.0,30.11,East,84,3.0,6.0,34,0.00,,,0.00,weatherlink.com 1.10,2013-03-05 00:17:00,
2013-03-04 19:32:00,46.4,20.0,30.11,East,97,5.0,6.0,35,0.00,,,0.00,weatherlink.com 1.10,2013-03-05 00:32:00,
2013-03-04 19:47:00,46.2,20.0,30.11,East,94,5.0,8.0,35,0.00,,,0.00,weatherlink.com 1.10,2013-03-05 00:47:00,
2013-03-04 20:02:00,45.5,20.0,30.09,East,101,6.0,10.0,37,0.00,,,0.00,weatherlink.com 1.10,2013-03-05 01:02:00,
2013-03-04 20:17:00,45.5,21.0,30.09,East,98,6.0,12.0,38,0.00,,,0.00,weatherlink.com 1.10,2013-03-05 01:17:00,
2013-03-04 20:32:00,45.4,22.0,30.10,East,84,3.0,9.0,39,0.00,,,0.00,weatherlink.com 1.10,2013-03-05 01:32:00,
2013-03-04 20:47:00,45.5,22.0,30.10,East,97,3.0,8.0,39,0.00,,,0.00,weatherlink.com 1.10,2013-03-05 01:47:00,
2013-03-04 21:02:00,45.6,22.0,30.11,ENE,72,3.0,7.0,39,0.00,,,0.00,weatherlink.com 1.10,2013-03-05 02:02:00,
2013-03-04 21:17:00,45.5,22.0,30.11,East,91,7.0,7.0,39,0.00,,,0.00,weatherlink.com 1.10,2013-03-05 02:17:00,
2013-03-04 21:32:00,45.3,21.0,30.11,NNE,19,2.0,7.0,39,0.00,,,0.00,weatherlink.com 1.10,2013-03-05 02:32:00,
2013-03-04 21:47:00,44.4,22.0,30.11,NNE,23,2.0,3.0,41,0.00,,,0.00,weatherlink.com 1.10,2013-03-05 02:47:00,
2013-03-04 22:02:00,44.2,22.0,30.11,NNE,19,3.0,6.0,41,0.00,,,0.00,weatherlink.com 1.10,2013-03-05 03:02:00,
2013-03-04 22:17:00,43.7,22.0,30.12,NNE,20,2.0,4.0,42,0.00,,,0.00,weatherlink.com 1.10,2013-03-05 03:17:00,
2013-03-04 22:32:00,43.9,21.0,30.12,NE,40,2.0,5.0,41,0.00,,,0.00,weatherlink.com 1.10,2013-03-05 03:32:00,
2013-03-04 22:47:00,43.7,21.0,30.13,NE,35,1.0,4.0,41,0.00,,,0.00,weatherlink.com 1.10,2013-03-05 03:47:00,
2013-03-04 23:02:00,44.2,20.0,30.12,ENE,77,5.0,7.0,39,0.00,,,0.00,weatherlink.com 1.10,2013-03-05 04:02:00,
2013-03-04 23:17:00,44.6,20.0,30.12,NE,39,2.0,5.0,38,0.00,,,0.00,weatherlink.com 1.10,2013-03-05 04:17:00,
2013-03-04 23:32:00,44.7,20.0,30.12,East,80,5.0,6.0,38,0.00,,,0.00,weatherlink.com 1.10,2013-03-05 04:32:00,
2013-03-04 23:47:00,44.6,20.0,30.12,East,91,4.0,6.0,38,0.00,,,0.00,weatherlink.com 1.10,2013-03-05 04:47:00,